Hourly Data Report for May 25, 2021

TOBERMORY RCS
ONTARIO
Current Station Operator: ECCC - MSC

45°14'00.000" N
81°38'00.000" W
213.50 m
6128330
71767
TTR

Download Data

Hourly Data (May 2021)
Hourly Data Report for May 25, 2021
TIME
LST
Temp Definition
°C
Dew Point Definition
°C
Rel Hum Definition
%
Precip. Amount Definition
mm

Wind Dir Definition
10's deg

Wind Spd Definition
km/h
Visibility Definition
km
Stn Press Definition
kPa
Hmdx Definition


Wind Chill Definition


Weather Definition


00:00 16.1 12.3 78 0.0 18 11   99.15     LegendNANA
01:00 15.1 13.1 88 0.0 19 12   99.10     LegendNANA
02:00 14.4 12.9 91 0.0 19 12   99.04     LegendNANA
03:00 14.7 13.4 92 0.0 20 15   98.99     LegendNANA
04:00 13.3 12.2 93 0.0 18 16   98.95     LegendNANA
05:00 13.8 12.9 94 0.0 19 15   98.90     LegendNANA
06:00 12.7 11.9 95 0.0 19 13   98.89     LegendNANA
07:00 12.8 12.2 96 0.0 19 12   98.87     LegendNANA
08:00 14.6 13.3 92 0.0 21 15   98.85     LegendNANA
09:00 15.5 13.9 90 0.0 23 19   98.82     LegendNANA
10:00 16.8 13.3 80 0.0 22 17   98.79     LegendNANA
11:00 17.1 13.2 78 0.0 22 15   98.80     LegendNANA
12:00 17.3 12.4 73 0.0 22 13   98.80     LegendNANA
13:00 18.6 12.8 69 0.0 22 17   98.73     LegendNANA
14:00 17.7 12.8 73 0.0 23 18   98.71     LegendNANA
15:00 18.7 13.4 71 0.0 22 16   98.66     LegendNANA
16:00 17.9 11.8 67 0.0 22 17   98.56     LegendNANA
17:00 20.2 11.9 59 0.0 22 20   98.52     LegendNANA
18:00 17.3 10.4 64 0.0 21 17   98.48     LegendNANA
19:00 17.2 10.4 64 0.0 22 18   98.45     LegendNANA
20:00 18.1 10.6 62 0.0 23 18   98.43     LegendNANA
21:00 16.3 9.9 66 0.0 22 14   98.46     LegendNANA
22:00 15.2 10.2 72 0.0 23 17   98.50     LegendNANA
23:00 14.0 10.4 79 0.0 22 11   98.45     LegendNANA

Notes on Data Quality.

Legend

  • E = Estimated
  • M = Missing
  • NA = Not Available*
  • [empty] = Indicates an unobserved value
Date modified: